Wind_Speed
9 10 10 10 11 12 11 11 11 9 8 7 8 10 11 10 10 10 9 8 7 6 5 3 2 2 2 2 3 3 4 4 5 7 8 9 10 11 12 13 14 15 15 16 16 16 17 16 16 16 15 15 16 15 16 16 15 15 16 16 17 17 17 17 16 16 16 15 15 16 19 22 23 23
8 8 9 11 12 13 12 12 12 11 10 8 7 7 8 9 8 8 9 9 7 6 4 3 2 2 3 4 4 5 6 6 7 8 8 9 10 11 12 13 14 14 15 15 15 16 16 16 15 15 15 15 15 15 15 15 15 14 14 14 14 14 15 16 16 17 17 17 16 16 18 19 21 22
8 7 8 9 11 12 12 12 12 11 10 9 8 7 6 8 8 8 7 8 7 6 4 3 2 3 4 5 6 6 6 7 7 8 8 9 10 11 11 12 13 13 14 14 15 15 15 15 15 15 15 15 15 16 16 16 16 16 16 16 15 14 14 14 15 15 16 17 17 18 18 18 19 20
7 7 7 7 8 9 10 10 10 10 9 9 9 8 7 7 8 7 7 7 7 5 4 3 3 4 5 6 7 7 7 8 8 8 8 9 10 11 11 12 12 13 13 14 14 15 15 15 15 15 16 16 16 17 17 17 18 18 18 18 18 18 17 16 16 16 16 17 17 18 19 19 19 19
5 5 5 6 6 6 6 6 6 6 6 7 7 8 7 7 7 6 5 5 5 4 3 3 4 6 7 8 8 8 9 9 9 10 10 10 11 11 12 13 13 13 14 14 14 15 15 15 16 16 16 17 17 18 18 19 19 19 20 20 20 20 20 20 19 18 18 18 18 18 19 20 20 20
3 3 3 3 3 4 4 4 4 4 4 5 5 5 5 5 5 5 5 4 5 4 5 5 7 7 8 9 10 10 10 11 11 11 12 12 12 13 13 13 14 14 14 15 15 15 16 16 17 17 17 18 18 18 19 20 20 20 20 20 21 21 21 21 21 21 20 20 19 19 20 20 21 21
3 3 3 2 1 1 1 1 2 2 3 4 4 4 4 4 4 5 5 6 6 6 6 7 7 8 9 10 11 12 12 12 12 13 13 13 14 14 14 14 15 15 15 15 16 16 16 17 18 18 18 19 19 19 20 20 21 21 22 21 21 21 21 21 21 21 21 21 20 20 20 21 21 22
2 2 3 3 3 2 1 1 0 0 1 2 2 2 3 3 3 4 6 7 7 7 7 7 7 9 10 11 12 13 14 14 14 14 14 14 15 15 15 15 15 15 15 15 15 16 16 17 18 19 20 20 20 20 20 21 21 22 23 23 23 23 23 23 23 23 22 22 22 22 21 22 22 23
3 3 3 3 3 4 3 3 2 2 1 0 0 1 1 2 2 4 6 8 7 6 6 7 8 10 11 12 14 15 15 16 16 16 16 16 16 16 16 17 17 17 17 17 16 16 17 17 18 19 20 21 22 22 22 22 22 23 23 23 24 24 24 24 24 24 24 24 24 24 24 24 24 24
5 6 6 6 5 4 5 4 4 4 4 3 3 3 3 3 3 4 5 6 6 5 5 7 9 10 12 13 15 16 16 17 18 18 19 18 18 17 18 18 19 19 18 18 18 18 18 18 18 19 20 21 22 23 23 23 24 24 24 24 24 25 25 25 25 25 25 25 25 25 25 25 25 25
8 9 11 10 8 7 8 8 7 7 7 6 6 5 5 5 5 5 5 5 6 6 6 8 10 11 12 13 15 16 18 18 19 20 20 21 21 20 19 19 20 20 20 20 20 19 19 20 20 20 21 22 22 22 23 24 24 25 25 26 26 26 27 27 27 26 26 26 26 26 25 25 25 25
11 13 14 14 12 12 12 10 9 10 10 9 9 8 7 7 8 8 8 7 8 8 8 9 10 11 13 14 15 18 19 20 22 22 21 21 22 22 21 21 21 21 21 21 21 21 21 22 22 23 23 24 23 23 23 24 25 26 26 26 27 27 27 28 28 28 27 27 27 27 27 27 26 26
14 15 16 16 15 15 15 12 11 12 12 12 12 11 11 11 12 11 11 10 10 10 9 10 10 10 11 14 16 18 20 21 23 23 22 21 21 22 22 23 24 23 23 23 23 24 24 24 24 24 25 25 25 24 24 24 25 25 26 27 27 28 28 28 28 28 28 28 28 28 28 28 28 28
15 16 16 16 15 15 16 16 15 14 14 14 14 14 14 15 14 13 14 13 12 12 12 12 11 10 11 13 16 18 20 22 22 22 21 21 22 23 23 24 25 26 26 27 26 27 28 28 26 26 27 26 26 25 25 25 25 25 26 26 27 28 28 29 29 29 28 28 28 28 28 29 29 29
14 15 16 16 16 16 17 17 17 17 16 17 17 17 18 18 17 16 17 17 16 15 15 14 13 12 13 15 17 18 20 21 22 22 22 24 25 26 26 26 27 27 28 29 28 28 29 29 29 28 28 28 27 26 26 25 26 26 26 26 26 27 28 28 29 30 30 29 29 28 28 28 29 29
12 12 13 14 15 15 16 18 19 19 18 18 18 19 20 20 20 19 19 18 17 17 17 15 14 14 15 16 17 18 19 21 22 23 24 26 28 28 29 29 29 29 30 31 31 30 29 30 30 29 29 30 29 28 27 26 26 26 26 26 26 26 27 27 28 29 29 30 30 30 29 29 28 29
11 11 11 12 12 13 15 17 18 19 19 18 18 19 20 21 21 21 20 19 18 18 16 15 14 15 15 16 17 17 19 21 23 24 25 28 29 29 30 30 30 31 31 31 33 32 31 31 32 31 31 31 31 30 29 27 26 27 27 26 26 26 26 26 27 28 28 29 29 30 30 30 29 29
11 11 12 12 12 13 14 15 17 18 19 19 18 18 20 22 22 22 21 20 20 19 17 16 16 16 16 17 17 18 19 21 23 25 26 28 29 30 31 31 32 32 32 31 32 32 32 32 33 33 32 32 31 30 30 28 27 28 28 27 26 26 26 25 25 26 27 27 28 28 29 29 29 29
10 11 11 11 12 12 13 15 16 17 19 20 19 17 18 21 22 22 21 21 21 20 19 18 17 17 18 19 19 20 22 24 26 27 27 28 30 32 32 33 34 34 34 33 32 33 33 32 32 33 32 32 31 30 30 29 29 29 29 27 26 26 25 24 24 24 25 26 27 27 28 28 28 28
9 9 10 10 10 11 12 13 15 16 18 19 18 15 15 18 20 21 22 22 22 21 20 19 18 18 19 20 21 23 25 27 29 30 30 30 31 32 33 33 33 32 33 35 34 33 32 30 30 33 33 33 33 32 30 29 29 29 27 25 24 24 23 22 22 23 23 24 25 26 27 28 28 28
9 9 10 10 10 10 11 12 14 15 16 16 14 12 12 16 19 21 22 22 21 21 21 19 19 20 21 22 23 25 27 29 30 30 30 30 30 31 31 30 30 31 32 34 34 31 28 27 29 31 32 33 32 32 31 29 27 25 23 22 23 23 23 23 24 24 25 25 25 25 26 27 28 28
10 11 11 11 11 10 10 11 11 11 12 12 10 10 13 17 19 20 21 21 21 21 21 20 21 22 23 25 26 28 29 30 30 30 29 29 29 30 29 28 30 31 29 30 31 28 24 24 26 27 28 28 28 28 28 25 23 22 21 21 23 24 25 25 25 26 27 27 27 27 26 27 27 27
10 11 12 12 12 11 9 9 8 8 8 8 9 12 15 18 19 19 20 20 20 21 21 22 23 24 26 28 29 29 30 30 30 30 29 29 28 28 28 28 28 26 23 25 29 27 23 24 24 22 21 23 23 22 21 20 19 19 18 17 18 21 23 24 23 24 26 27 27 28 27 27 27 27
11 12 12 11 11 10 8 8 7 6 6 7 10 14 17 18 18 19 19 20 20 21 22 23 24 26 27 28 28 29 29 30 30 30 30 29 28 28 28 27 26 25 23 22 24 23 21 22 22 18 16 18 21 20 18 18 17 15 15 15 15 17 19 20 21 22 23 24 26 27 27 27 27 27
11 10 10 10 9 8 7 6 6 6 6 8 11 14 15 17 18 19 20 21 21 23 24 25 26 27 27 28 28 29 30 30 30 30 29 29 28 28 26 22 21 23 22 19 20 21 21 19 19 17 16 17 20 21 19 18 16 14 15 15 15 17 18 19 20 20 18 18 20 22 24 25 26 27
9 8 8 7 7 6 6 6 6 7 8 10 12 15 17 18 19 20 22 22 23 25 26 26 26 27 27 28 29 30 30 30 30 30 29 29 28 29 27 23 21 21 20 18 19 21 21 19 18 17 18 19 20 20 20 19 16 15 15 14 15 17 17 17 17 16 14 14 15 16 19 22 25 26
9 8 7 7 6 7 7 7 8 10 12 15 17 18 19 20 21 22 24 24 25 25 26 26 26 27 28 29 29 30 30 31 30 30 29 29 28 29 29 28 26 24 23 22 20 19 20 20 19 18 18 20 21 20 20 19 17 16 16 16 16 16 16 16 16 15 14 14 14 15 16 18 20 22
8 8 7 7 8 9 9 11 13 15 16 17 18 18 19 20 21 23 23 24 24 24 25 26 26 27 28 28 29 29 30 30 30 29 28 28 28 27 28 28 27 26 26 27 25 22 21 21 19 18 18 19 20 21 20 19 18 18 18 18 17 16 16 16 16 15 15 14 14 14 14 14 15 17
8 8 8 8 9 11 12 14 15 16 16 17 17 17 18 20 21 21 22 22 23 24 25 26 26 27 27 28 28 28 28 28 28 27 26 26 26 27 27 27 27 27 28 28 26 24 22 20 19 18 17 18 19 20 20 20 20 18 18 18 18 17 16 15 15 15 15 14 14 15 15 14 14 14
9 9 9 10 11 13 14 14 14 15 16 16 17 17 18 18 19 20 21 22 23 24 25 26 26 26 26 26 26 26 27 27 27 26 26 26 26 26 26 25 26 26 25 24 23 21 19 18 18 18 17 17 18 19 19 20 20 18 17 17 17 17 16 14 14 15 15 15 16 16 17 17 17 17
9 9 9 11 12 13 13 13 13 15 15 15 15 16 17 18 19 20 21 22 23 23 24 24 23 24 24 25 25 26 26 26 25 25 25 25 25 24 23 23 24 24 22 21 20 18 17 17 18 18 17 17 18 18 17 18 19 18 17 16 16 17 17 16 16 15 15 15 17 17 17 17 17 18
10 9 10 11 12 12 12 11 12 12 13 14 15 16 17 18 19 20 20 20 20 20 21 22 23 23 24 25 25 25 25 25 24 24 23 22 21 20 18 18 19 19 18 17 16 15 14 14 14 15 15 16 17 17 16 17 17 17 17 17 16 16 16 16 16 15 13 14 15 15 15 15 15 17
10 10 10 11 11 10 10 10 10 11 12 14 15 15 16 17 17 17 18 18 18 18 20 22 23 24 25 25 25 24 24 23 23 22 22 20 18 17 16 16 16 15 15 15 15 12 11 11 11 13 14 16 16 16 16 17 18 17 16 16 15 16 15 15 14 14 13 13 14 14 14 14 14 14
9 10 10 10 9 9 9 9 10 11 12 13 13 14 14 14 15 15 16 17 18 19 20 22 23 24 24 24 24 23 23 23 22 22 22 20 18 18 17 17 16 16 15 17 16 13 12 12 12 12 14 15 15 16 16 17 18 17 15 14 15 15 15 14 13 12 12 12 13 15 16 16 14 12
9 9 10 9 8 7 8 9 10 10 11 11 11 11 11 12 14 15 16 17 18 19 20 21 22 23 23 23 24 23 23 23 23 22 22 20 19 19 18 18 19 20 19 19 19 17 16 16 15 15 15 15 15 15 14 15 16 16 14 13 13 13 14 13 12 11 11 12 13 15 18 19 17 13
9 9 9 7 6 7 8 8 8 8 8 8 8 9 11 13 15 16 17 17 17 18 19 20 21 22 23 23 24 23 22 22 22 22 22 22 21 21 20 20 22 23 21 21 21 19 19 19 19 17 17 16 16 16 14 13 14 15 14 13 12 12 13 13 13 13 13 13 13 14 16 18 18 15
9 8 7 6 6 7 7 7 6 6 5 5 7 10 12 14 16 16 17 17 17 18 19 19 18 21 23 23 23 22 22 21 22 22 23 23 22 23 22 23 24 24 22 21 20 20 20 20 19 18 17 17 16 16 14 12 13 14 14 13 12 12 13 13 14 16 16 14 13 13 14 16 17 15
8 7 6 6 6 6 5 4 3 3 3 6 9 11 13 15 16 17 18 18 18 19 18 16 14 17 22 23 22 22 21 21 22 22 23 23 23 24 24 24 24 24 24 23 23 22 21 21 19 18 17 16 16 16 14 12 12 15 16 16 15 15 16 16 15 15 15 15 15 13 13 14 14 13
8 6 5 5 5 4 3 2 0 2 5 8 10 11 13 15 17 18 19 19 18 19 18 16 15 18 21 22 22 22 21 21 22 22 23 23 24 24 25 25 24 24 24 24 24 23 21 20 19 18 16 16 17 16 15 15 17 20 20 20 18 17 17 16 15 13 13 15 15 14 13 13 12 10
7 6 5 5 4 3 2 1 2 4 7 8 9 11 13 16 17 19 19 19 19 19 19 18 19 20 22 22 22 22 22 21 21 22 23 23 24 24 23 23 24 24 24 24 24 23 21 20 19 17 16 17 18 17 17 19 22 22 21 18 15 13 14 15 14 13 13 14 13 13 13 12 11 7
7 5 4 3 2 2 2 2 3 5 7 8 9 11 13 15 17 19 19 19 20 20 19 19 20 22 23 24 23 23 22 22 21 22 23 23 23 23 23 23 23 23 23 23 23 22 20 18 17 17 17 17 17 17 18 19 20 18 15 12 11 11 12 13 13 13 13 11 11 11 11 11 9 7
5 3 2 2 2 2 2 2 3 5 6 7 9 11 13 15 17 19 19 20 21 20 20 20 21 23 25 25 23 22 22 21 21 22 23 24 23 23 22 22 22 22 22 22 23 21 19 17 15 15 16 15 15 15 16 18 17 15 11 9 8 10 10 10 11 12 12 10 10 10 10 7 5 5
3 2 2 2 2 2 2 2 3 4 6 8 10 12 14 15 17 19 20 20 20 20 20 20 21 23 25 25 23 21 20 21 22 23 23 23 22 22 22 22 21 21 21 21 22 21 19 17 14 14 14 14 13 14 15 15 14 13 10 7 7 8 9 9 10 11 11 10 9 9 8 5 1 4
2 1 1 2 2 2 2 1 3 5 7 9 11 12 14 15 16 18 19 19 19 19 20 21 22 24 26 25 22 21 20 21 22 23 23 22 21 21 22 22 21 21 21 21 21 21 20 17 14 13 13 13 13 13 13 12 11 9 8 7 7 8 8 8 8 7 6 6 6 6 6 5 2 3
1 1 1 2 2 2 1 1 3 5 7 9 11 12 13 14 16 17 18 19 19 20 21 21 23 25 25 24 22 21 21 22 23 23 23 22 20 20 21 20 20 20 20 20 20 20 18 16 13 12 12 11 10 9 10 10 9 7 6 6 6 6 6 6 6 3 2 4 5 4 4 3 1 1
Wind_Direction
94 96 97 99 101 100 100 103 108 113 123 144 165 175 181 175 160 150 135 122 121 123 119 106 77 51 22 358 345 341 331 318 312 309 308 310 309 309 310 309 309 308 308 308 308 308 307 306 305 303 300 296 293 290 287 286 284 282 280 276 273 271 269 267 267 267 266 264 261 258 255 256 259 260
91 93 100 105 104 102 102 104 105 108 112 118 134 158 175 178 179 174 155 140 135 133 129 115 76 39 18 6 1 353 343 336 329 324 320 316 314 314 313 312 313 313 314 314 314 314 314 313 311 309 305 301 297 295 292 290 288 287 285 284 281 278 274 270 266 263 263 262 260 260 259 259 260 262
85 84 92 100 102 102 102 103 103 103 106 109 112 125 150 169 186 197 182 160 148 141 132 112 74 40 27 18 9 360 353 348 340 333 328 323 321 320 318 317 317 317 317 317 316 316 315 313 311 308 305 301 297 295 293 292 290 288 287 286 285 282 279 276 272 269 265 263 261 259 259 260 261 261
74 74 76 83 92 97 97 100 104 105 105 104 106 110 122 146 168 186 194 177 155 140 119 86 53 28 21 15 6 359 357 354 349 344 339 334 332 329 326 324 321 320 318 316 314 313 312 309 307 304 302 300 297 295 293 292 291 291 290 289 288 286 282 279 276 274 271 268 265 262 260 260 260 260
57 61 60 62 71 80 85 88 91 96 96 93 94 99 106 118 132 141 155 153 133 111 69 38 19 6 1 356 351 348 348 347 347 347 345 341 337 333 330 328 325 323 320 318 315 312 310 307 304 302 300 298 297 296 294 293 292 292 292 291 290 289 287 285 281 277 273 270 267 265 263 262 261 260
26 29 34 39 49 59 68 73 72 73 75 74 72 75 82 89 95 99 97 88 74 49 22 8 359 355 350 345 342 341 341 341 342 342 341 338 336 333 332 329 327 325 322 319 318 315 312 309 305 303 301 298 297 296 295 294 294 294 293 293 292 291 290 289 287 283 278 272 268 265 263 263 264 264
359 356 356 348 344 10 43 54 60 67 69 69 69 67 65 63 63 63 55 42 30 21 13 5 357 353 349 346 343 341 339 338 339 338 337 336 335 332 330 328 326 324 322 320 318 315 313 310 308 305 304 302 300 298 296 295 294 293 292 292 292 291 291 290 289 287 283 279 274 269 265 262 262 264
316 321 324 324 315 303 293 266 253 74 84 81 76 71 55 41 33 27 16 6 4 5 4 3 357 351 348 345 342 339 336 333 332 332 332 332 330 327 324 322 321 320 319 317 316 314 311 309 307 306 305 304 303 301 300 297 295 294 292 292 291 290 290 288 287 285 283 282 280 277 273 268 264 261
257 272 272 281 292 299 297 277 255 255 256 280 335 338 356 353 342 344 346 345 348 352 353 353 349 343 340 337 334 331 329 328 327 326 325 324 323 321 319 317 315 314 314 314 313 313 311 308 306 305 304 304 304 304 303 302 300 298 296 294 293 292 289 288 286 284 283 280 278 277 276 273 269 265
259 263 261 258 256 268 284 280 262 252 249 257 268 265 266 270 278 301 319 329 333 331 333 337 336 334 332 330 329 328 326 324 321 320 319 318 317 316 317 316 314 312 311 309 308 307 306 305 305 305 305 304 305 305 304 304 302 301 299 298 297 295 292 290 288 286 284 282 279 277 275 273 271 268
268 264 265 264 258 256 261 262 261 259 252 253 260 261 265 272 278 285 292 305 311 305 309 321 324 324 325 327 330 332 331 328 325 322 319 317 315 314 314 315 313 312 311 309 307 304 302 301 301 302 302 302 303 304 303 302 300 299 298 298 297 296 294 293 291 289 287 285 283 280 277 275 272 269
275 268 266 266 264 263 263 263 267 268 264 262 264 264 268 274 279 283 285 290 293 288 291 306 312 313 317 323 328 330 333 335 332 328 323 319 317 315 315 315 313 312 311 309 307 304 302 302 302 301 300 300 301 302 301 300 299 298 297 295 295 293 293 292 291 290 289 287 285 283 281 278 274 271
278 271 268 266 266 266 267 269 271 270 269 270 270 271 272 273 275 280 280 280 282 279 283 296 303 307 312 318 324 327 331 333 333 330 327 324 321 319 320 319 315 314 313 311 309 307 305 304 304 303 301 300 299 300 299 298 297 296 295 294 293 292 291 290 289 289 288 286 285 283 282 280 277 273
275 267 263 263 264 264 266 266 267 270 275 276 273 270 269 269 271 274 276 279 280 279 282 289 295 300 305 313 321 324 326 330 331 330 328 327 325 323 323 322 318 316 315 314 312 310 309 307 306 304 302 301 300 299 299 298 296 295 293 291 290 289 289 289 288 288 287 285 283 281 280 279 278 276
277 273 268 265 263 261 262 262 261 264 271 275 274 271 270 271 273 275 277 280 281 280 280 283 288 296 304 312 318 320 323 326 328 327 325 324 325 325 324 324 321 317 316 315 312 311 309 307 306 305 303 302 302 301 299 298 296 295 293 291 288 287 285 285 285 285 285 284 283 281 279 277 276 275
281 279 276 273 268 263 261 262 262 263 264 265 266 267 269 272 274 275 277 277 277 278 278 279 283 293 302 308 312 316 320 323 323 324 323 322 323 323 322 322 321 318 318 317 314 312 311 309 306 306 304 303 302 301 300 299 298 296 293 291 289 286 284 282 281 280 280 280 280 280 280 278 276 274
279 279 278 277 275 271 269 268 268 268 266 261 258 258 263 267 270 273 275 275 275 277 278 278 282 290 297 301 305 311 317 318 318 319 320 319 319 318 317 317 317 317 317 316 314 313 312 311 308 307 306 304 303 301 300 300 299 297 294 293 290 287 284 282 280 278 277 276 276 276 277 277 277 275
278 280 280 280 279 277 274 272 271 270 269 267 261 257 259 263 266 270 273 275 276 279 280 279 283 292 299 299 302 309 313 313 313 313 314 315 314 313 313 314 314 315 315 314 314 311 310 309 307 306 305 303 303 302 300 300 299 296 295 294 291 287 283 281 278 276 275 274 273 273 272 273 274 275
277 280 282 284 283 279 274 271 269 268 269 269 266 260 258 261 264 268 270 273 276 280 282 282 285 294 300 302 305 309 311 311 310 310 310 310 310 311 312 314 315 316 315 315 315 312 310 309 306 306 306 304 303 301 300 300 299 297 296 294 290 286 284 281 278 276 273 272 271 270 269 269 269 271
279 286 291 292 290 285 277 270 267 266 266 265 262 257 257 261 264 267 269 271 276 281 283 285 290 296 298 301 305 307 309 310 310 309 310 311 312 313 313 314 315 315 314 314 315 313 310 309 308 307 307 306 305 304 302 301 299 297 295 293 289 287 285 283 280 277 275 273 271 270 268 267 267 267
278 288 297 301 300 294 284 274 269 266 263 259 256 254 258 262 264 266 268 271 276 281 285 288 294 299 300 303 305 306 307 308 308 308 309 311 312 312 313 313 312 312 313 313 314 313 309 309 310 309 307 306 306 307 307 305 301 296 292 288 286 285 283 282 281 280 278 276 273 270 269 268 268 267
281 289 298 305 308 306 294 278 270 267 261 255 252 253 257 258 259 262 266 272 279 285 289 293 297 301 304 306 307 307 307 307 306 306 307 307 308 309 309 309 309 311 313 311 311 310 306 307 310 310 308 307 307 308 309 307 302 295 290 285 282 282 282 282 282 281 278 275 272 270 268 268 268 269
281 289 297 303 307 307 299 285 278 276 270 262 252 247 248 251 256 262 270 278 285 289 293 297 300 304 305 306 306 305 305 305 305 305 306 307 308 307 306 306 306 307 306 304 305 304 302 304 308 308 307 307 306 305 305 301 297 295 294 290 286 286 287 286 284 282 280 277 273 269 267 266 266 267
281 288 295 300 303 304 303 302 302 298 288 273 256 246 247 254 264 273 282 287 291 295 298 301 302 303 303 303 302 302 303 304 305 306 306 307 307 305 304 304 302 298 296 298 300 299 299 301 302 300 298 296 296 298 298 295 294 295 294 292 291 291 293 295 295 291 287 282 276 271 267 265 264 264
280 286 293 300 304 306 308 312 315 308 293 279 266 260 264 272 281 287 292 294 297 299 299 300 299 299 300 300 301 302 303 304 305 305 306 305 305 303 301 299 294 291 291 292 293 294 295 295 294 293 289 285 286 291 293 292 292 292 291 291 291 291 296 303 303 297 289 284 280 275 269 264 262 262
278 280 286 292 298 304 306 305 301 294 285 279 275 275 279 284 289 292 294 296 297 297 297 297 298 299 301 302 303 304 305 305 305 305 304 303 301 300 297 293 288 286 288 289 290 291 291 289 288 288 286 284 285 288 290 289 290 291 290 289 289 291 296 300 297 289 283 281 279 273 267 262 259 258
274 271 272 277 283 288 288 286 285 283 281 279 277 277 279 282 285 288 291 293 294 294 296 298 300 302 304 305 306 306 306 305 304 303 302 299 297 296 295 293 290 287 289 292 292 288 285 284 283 280 280 283 285 286 287 288 289 290 289 288 288 288 290 291 287 283 280 280 277 271 267 266 264 260
270 265 262 266 272 274 273 278 283 286 286 284 282 281 283 284 286 288 290 293 294 297 299 302 305 306 307 307 306 305 304 304 303 303 302 300 299 298 297 296 294 292 294 296 295 289 283 280 278 276 276 278 280 282 284 285 286 288 288 288 287 287 288 287 284 282 280 278 277 276 275 275 273 268
267 265 259 257 263 270 275 281 288 293 293 290 285 284 286 287 289 291 294 298 300 303 305 306 307 307 307 306 306 306 306 307 308 308 306 305 305 304 302 300 299 298 299 299 297 292 285 279 275 274 273 272 273 277 280 283 285 286 286 286 287 288 289 286 282 282 281 278 276 276 273 268 265 261
262 263 258 253 260 271 277 280 287 292 293 290 287 287 290 293 296 300 303 306 307 307 307 306 307 308 308 309 310 311 311 312 313 312 310 309 309 308 306 304 303 302 302 300 296 290 282 276 274 272 270 271 272 273 277 280 283 284 283 284 287 289 289 287 284 283 281 279 280 279 272 263 258 255
257 260 260 258 264 273 278 281 286 290 291 292 294 297 300 303 306 308 309 309 308 306 307 309 311 312 313 314 315 315 315 316 316 316 315 313 312 312 310 308 306 307 305 303 299 293 284 279 277 273 270 271 272 273 275 277 279 281 283 282 283 284 285 287 287 285 283 283 284 283 278 269 261 259
254 256 260 262 268 277 283 287 290 293 296 300 304 307 309 311 311 311 311 311 310 311 314 317 318 319 319 320 320 320 320 321 322 321 320 317 315 315 312 308 307 308 307 306 304 298 289 284 280 274 271 271 272 273 275 275 275 278 281 283 282 282 284 286 287 287 287 286 285 283 280 275 266 262
252 254 259 263 270 278 282 285 290 297 303 308 311 313 313 313 313 313 314 317 318 319 322 324 325 325 326 326 327 326 325 325 325 324 322 320 318 315 311 305 304 304 304 305 305 301 293 286 279 275 275 274 273 273 273 274 276 278 280 282 283 283 285 286 285 285 287 287 287 286 283 279 274 267
249 253 255 258 264 271 277 285 295 303 309 313 314 314 314 315 318 320 323 324 324 325 327 329 330 331 331 331 330 328 326 326 325 324 323 321 318 315 311 307 305 305 304 305 307 305 299 293 288 284 281 279 277 276 272 273 279 282 281 281 282 283 285 285 283 284 286 285 287 289 288 287 286 281
246 247 246 248 255 266 278 290 298 305 310 312 312 316 323 330 334 335 334 332 330 329 331 332 334 334 334 333 331 328 326 325 325 324 323 321 318 315 312 308 309 311 309 307 309 309 307 305 303 297 292 289 286 283 279 279 284 287 284 281 280 280 283 285 284 281 282 285 286 288 290 292 294 296
241 239 237 242 257 271 281 291 297 303 309 313 321 336 346 349 348 346 341 336 333 331 331 332 334 336 336 333 330 328 326 325 323 322 322 321 319 317 314 311 313 314 311 307 308 309 308 309 308 302 296 293 290 288 288 289 293 295 289 280 280 282 283 284 280 274 275 282 285 287 290 294 296 297
234 230 231 242 257 268 275 284 294 303 313 332 352 1 1 357 353 349 343 338 334 331 330 332 335 338 337 334 330 329 328 326 323 321 321 321 320 318 316 314 314 314 311 307 307 307 306 307 307 302 295 291 289 290 291 292 296 300 295 283 279 282 282 280 280 278 277 279 281 284 288 292 295 295
217 216 225 240 250 259 268 276 291 316 352 11 13 9 4 358 353 349 345 341 335 332 332 332 332 334 336 335 334 333 331 328 324 322 321 320 319 316 315 314 313 313 312 311 310 310 309 307 306 303 298 291 288 290 294 295 294 296 294 288 284 285 285 283 282 283 282 279 280 283 288 292 294 293
198 206 220 235 242 249 255 254 286 29 30 24 16 9 2 357 352 350 348 344 339 336 333 329 326 330 334 337 338 336 333 328 326 324 322 319 317 315 314 313 312 312 312 312 312 311 308 306 307 307 302 293 287 288 290 290 290 292 295 295 292 289 289 286 282 281 282 282 283 285 289 294 297 291
191 204 217 227 229 225 205 164 83 47 35 25 13 4 359 355 352 351 348 346 344 340 334 329 328 330 334 337 339 337 333 329 327 325 323 320 318 316 314 313 312 312 311 310 309 308 308 307 307 306 301 293 289 289 288 288 292 298 303 305 303 294 287 284 283 284 285 285 285 285 288 296 302 299
189 202 211 213 200 179 163 132 74 45 31 18 5 359 356 354 352 349 348 347 346 342 336 333 333 333 334 338 340 337 333 331 329 327 324 322 320 318 316 314 313 313 312 310 309 311 313 311 307 303 298 292 289 289 289 290 296 303 307 310 313 304 290 282 282 284 285 285 282 280 286 298 308 311
186 198 202 195 174 165 159 121 65 37 18 5 357 354 353 351 350 349 348 347 345 341 339 338 336 335 337 340 341 337 334 332 331 328 326 324 321 319 317 315 314 313 312 311 311 315 318 317 309 302 297 292 288 289 290 293 300 305 306 307 312 308 295 284 278 276 277 274 269 271 281 298 321 333
183 197 191 177 167 166 156 102 49 22 3 353 350 350 349 347 348 349 348 345 342 341 342 341 338 337 339 342 342 340 338 335 333 330 328 326 323 320 318 316 315 314 313 312 315 320 324 324 319 308 300 296 292 292 296 301 306 308 308 309 310 305 299 292 285 278 272 264 260 264 266 254 272 348
183 201 183 166 160 156 139 69 26 6 353 348 347 347 345 344 347 349 346 343 343 345 345 343 341 341 342 344 344 343 341 338 335 333 332 330 327 323 321 319 318 317 316 317 321 325 328 327 323 313 305 302 299 300 305 311 312 309 310 314 311 307 308 312 311 297 271 246 238 241 233 209 198 318
222 222 176 156 147 138 114 25 4 353 346 344 344 343 341 342 345 346 344 344 347 348 348 346 345 344 345 347 347 346 344 342 341 340 338 334 329 325 323 322 320 319 320 323 326 328 327 326 321 314 310 310 312 314 317 319 317 315 315 314 311 314 328 341 348 354 152 165 172 182 183 171 157 288
Height
1559 1559 1559 1560 1560 1559 1560 1560 1560 1560 1560 1560 1561 1562 1563 1564 1564 1565 1566 1566 1566 1566 1566 1566 1566 1566 1566 1566 1566 1566 1565 1565 1565 1564 1564 1563 1563 1563 1562 1562 1562 1561 1561 1560 1560 1560 1559 1559 1558 1558 1558 1557 1556 1556 1557 1556 1556 1556 1555 1555 1555 1555 1555 1555 1555 1555 1555 1555 1556 1556 1556 1556 1557 1557
1561 1561 1561 1561 1561 1561 1561 1561 1561 1561 1561 1561 1561 1562 1562 1563 1564 1565 1565 1566 1566 1566 1566 1566 1566 1566 1566 1566 1565 1565 1565 1565 1564 1564 1563 1563 1562 1562 1561 1561 1560 1560 1559 1559 1558 1558 1557 1557 1556 1556 1556 1556 1555 1555 1555 1555 1554 1554 1554 1553 1553 1553 1552 1552 1552 1552 1553 1553 1553 1554 1554 1554 1554 1554
1562 1562 1562 1562 1562 1562 1562 1562 1562 1562 1562 1562 1562 1562 1562 1563 1564 1565 1565 1565 1566 1566 1566 1566 1566 1566 1566 1565 1565 1565 1565 1564 1564 1563 1563 1562 1562 1561 1560 1560 1559 1558 1558 1557 1556 1556 1555 1555 1555 1554 1554 1554 1554 1554 1553 1553 1553 1552 1552 1552 1551 1551 1551 1551 1551 1551 1551 1551 1551 1551 1551 1551 1552 1552
1563 1563 1563 1563 1563 1563 1563 1563 1563 1563 1563 1563 1563 1563 1563 1563 1564 1565 1565 1565 1565 1566 1566 1566 1566 1566 1566 1565 1565 1565 1565 1564 1564 1563 1563 1562 1561 1560 1559 1559 1558 1557 1556 1556 1555 1554 1554 1553 1553 1552 1552 1552 1552 1552 1551 1551 1551 1550 1550 1549 1549 1549 1549 1549 1549 1549 1549 1549 1549 1549 1549 1549 1549 1549
1564 1564 1564 1564 1564 1563 1563 1563 1563 1563 1564 1564 1564 1564 1564 1564 1564 1565 1565 1565 1565 1566 1566 1566 1566 1566 1566 1566 1565 1565 1564 1564 1563 1563 1562 1561 1561 1560 1559 1558 1557 1556 1555 1555 1554 1553 1552 1552 1551 1551 1550 1550 1549 1549 1549 1548 1548 1548 1547 1547 1546 1546 1546 1546 1546 1546 1546 1546 1546 1546 1546 1546 1546 1546
1564 1564 1564 1564 1564 1564 1564 1564 1564 1564 1564 1564 1564 1564 1564 1565 1565 1565 1565 1566 1566 1566 1566 1566 1566 1566 1565 1565 1565 1564 1564 1563 1563 1562 1562 1561 1560 1559 1558 1557 1556 1555 1554 1553 1552 1552 1551 1550 1549 1549 1548 1548 1547 1547 1546 1546 1545 1545 1544 1544 1544 1544 1543 1543 1543 1543 1543 1544 1544 1544 1544 1544 1544 1544
1564 1564 1565 1565 1564 1564 1564 1564 1564 1564 1564 1564 1564 1564 1564 1564 1564 1565 1565 1565 1565 1566 1566 1566 1565 1565 1565 1565 1564 1564 1563 1563 1562 1561 1561 1560 1559 1558 1557 1556 1555 1554 1553 1552 1551 1550 1549 1548 1547 1546 1546 1545 1545 1544 1544 1543 1543 1542 1542 1541 1541 1541 1541 1540 1540 1540 1540 1540 1540 1541 1541 1541 1541 1541
1563 1564 1564 1564 1564 1564 1564 1564 1564 1564 1564 1564 1564 1564 1564 1564 1564 1564 1564 1565 1565 1565 1565 1565 1565 1565 1564 1564 1563 1563 1562 1561 1561 1560 1560 1559 1558 1557 1556 1555 1554 1553 1552 1551 1550 1549 1548 1546 1545 1544 1543 1543 1542 1542 1541 1541 1540 1539 1539 1538 1538 1538 1538 1537 1537 1537 1537 1537 1537 1537 1537 1538 1538 1538
1562 1563 1563 1563 1564 1564 1564 1564 1564 1564 1564 1564 1564 1564 1564 1564 1563 1563 1564 1564 1564 1564 1564 1564 1564 1564 1563 1563 1563 1562 1561 1560 1560 1559 1558 1557 1557 1556 1554 1553 1552 1551 1550 1549 1548 1547 1546 1545 1544 1542 1541 1540 1539 1539 1538 1538 1537 1537 1536 1535 1535 1535 1534 1534 1533 1533 1533 1533 1533 1533 1533 1534 1534 1534
1561 1562 1562 1562 1562 1562 1563 1563 1563 1563 1563 1563 1563 1563 1563 1563 1562 1562 1562 1563 1563 1563 1563 1563 1563 1563 1562 1562 1561 1561 1560 1559 1559 1558 1557 1556 1555 1554 1553 1551 1550 1549 1548 1547 1547 1545 1544 1543 1542 1540 1539 1538 1537 1536 1535 1535 1534 1533 1533 1532 1532 1531 1530 1530 1530 1530 1529 1529 1529 1529 1529 1529 1529 1530
1560 1561 1561 1560 1560 1560 1560 1561 1561 1562 1562 1562 1562 1562 1562 1562 1562 1561 1561 1561 1562 1562 1562 1562 1561 1561 1561 1560 1560 1559 1558 1558 1557 1556 1555 1554 1553 1552 1551 1550 1548 1547 1546 1545 1544 1543 1542 1541 1539 1538 1537 1536 1535 1534 1533 1532 1531 1530 1529 1529 1528 1528 1527 1526 1526 1525 1525 1525 1525 1525 1525 1525 1525 1525
1558 1558 1558 1558 1558 1558 1558 1559 1560 1560 1560 1560 1560 1561 1561 1561 1561 1560 1560 1560 1560 1560 1560 1560 1560 1559 1559 1558 1558 1557 1556 1556 1555 1554 1553 1552 1550 1549 1548 1547 1546 1545 1544 1543 1542 1540 1539 1538 1537 1535 1534 1533 1532 1532 1530 1529 1528 1526 1526 1525 1524 1524 1523 1522 1522 1521 1521 1521 1521 1520 1520 1520 1521 1521
1556 1556 1556 1556 1556 1556 1556 1557 1558 1558 1558 1558 1558 1559 1559 1559 1559 1559 1559 1559 1559 1559 1559 1559 1558 1558 1557 1557 1556 1555 1555 1554 1553 1552 1551 1549 1548 1547 1546 1544 1542 1541 1540 1539 1539 1537 1536 1535 1534 1533 1531 1530 1529 1529 1528 1526 1525 1524 1522 1521 1520 1520 1519 1518 1518 1517 1517 1517 1516 1516 1516 1516 1516 1516
1553 1554 1554 1554 1554 1554 1554 1554 1555 1556 1556 1556 1556 1557 1557 1557 1557 1557 1557 1557 1557 1557 1557 1557 1557 1557 1556 1555 1554 1554 1553 1552 1551 1549 1548 1547 1546 1545 1544 1542 1540 1538 1537 1536 1535 1534 1532 1531 1530 1529 1528 1526 1526 1525 1524 1523 1522 1521 1519 1518 1517 1516 1515 1514 1513 1513 1513 1512 1512 1512 1511 1511 1511 1511
1551 1551 1552 1552 1552 1551 1551 1552 1552 1553 1553 1554 1554 1554 1555 1555 1555 1555 1556 1555 1556 1556 1555 1555 1555 1555 1554 1553 1553 1552 1550 1549 1548 1547 1546 1545 1544 1542 1541 1540 1538 1536 1534 1533 1532 1531 1529 1527 1526 1525 1524 1522 1522 1521 1521 1520 1518 1517 1516 1515 1514 1513 1512 1511 1510 1509 1508 1508 1507 1507 1507 1507 1507 1506
1549 1550 1550 1550 1550 1550 1550 1550 1550 1550 1551 1551 1551 1551 1552 1552 1553 1553 1553 1554 1553 1553 1553 1553 1553 1553 1552 1551 1550 1550 1548 1547 1546 1545 1544 1542 1541 1540 1539 1537 1536 1534 1532 1530 1528 1527 1526 1524 1522 1521 1520 1518 1518 1517 1516 1516 1514 1513 1511 1511 1510 1509 1508 1507 1507 1505 1504 1504 1503 1502 1502 1502 1502 1502
1547 1548 1548 1548 1548 1548 1548 1548 1547 1548 1548 1548 1548 1548 1549 1549 1550 1550 1551 1551 1551 1551 1551 1551 1551 1550 1550 1549 1548 1547 1546 1545 1544 1543 1542 1540 1538 1537 1536 1535 1533 1531 1529 1527 1525 1523 1523 1520 1518 1517 1516 1514 1513 1513 1512 1512 1510 1508 1507 1506 1506 1505 1504 1503 1503 1502 1501 1500 1499 1499 1498 1497 1497 1497
1546 1546 1546 1546 1546 1546 1545 1545 1545 1545 1545 1545 1546 1546 1546 1547 1547 1548 1548 1549 1549 1549 1549 1548 1548 1547 1547 1547 1545 1544 1544 1543 1542 1541 1540 1538 1536 1534 1533 1531 1530 1528 1526 1524 1522 1520 1519 1518 1515 1513 1513 1511 1510 1509 1508 1507 1506 1504 1502 1502 1501 1500 1500 1499 1498 1498 1497 1496 1495 1495 1494 1493 1493 1492
1544 1544 1544 1544 1544 1543 1543 1543 1543 1543 1543 1543 1543 1543 1544 1545 1545 1546 1546 1546 1546 1546 1546 1546 1545 1545 1544 1543 1542 1541 1540 1540 1539 1538 1537 1535 1533 1531 1529 1528 1526 1524 1522 1521 1519 1516 1515 1514 1511 1509 1509 1508 1506 1505 1504 1503 1501 1499 1498 1497 1496 1495 1495 1494 1494 1493 1493 1492 1491 1491 1490 1489 1489 1488
1542 1542 1542 1542 1542 1541 1541 1541 1541 1541 1541 1541 1541 1541 1542 1543 1543 1544 1544 1544 1544 1543 1543 1543 1542 1542 1541 1541 1539 1538 1537 1536 1535 1534 1532 1531 1529 1527 1525 1524 1523 1521 1518 1517 1515 1512 1510 1509 1507 1505 1505 1503 1501 1501 1500 1499 1497 1495 1494 1493 1492 1492 1491 1491 1490 1489 1489 1488 1487 1487 1486 1485 1485 1484
1541 1540 1540 1540 1540 1539 1539 1539 1539 1539 1539 1539 1539 1540 1540 1541 1541 1541 1541 1541 1541 1541 1540 1540 1539 1539 1538 1538 1536 1535 1534 1533 1532 1531 1529 1527 1525 1523 1521 1520 1519 1518 1516 1513 1512 1509 1507 1505 1504 1501 1500 1499 1497 1496 1495 1494 1493 1491 1491 1490 1489 1488 1488 1487 1486 1485 1485 1484 1483 1482 1482 1481 1481 1480
1538 1538 1538 1538 1538 1538 1537 1537 1537 1537 1537 1537 1538 1538 1539 1539 1540 1539 1539 1539 1538 1538 1538 1537 1536 1536 1535 1534 1533 1532 1531 1530 1529 1528 1526 1525 1523 1521 1519 1517 1515 1513 1512 1510 1508 1506 1504 1502 1501 1498 1496 1494 1493 1492 1491 1490 1489 1488 1487 1486 1485 1484 1484 1483 1482 1481 1480 1480 1479 1478 1478 1477 1477 1477
1537 1537 1536 1536 1536 1536 1536 1536 1535 1535 1536 1536 1536 1537 1537 1538 1538 1537 1537 1537 1536 1535 1535 1534 1533 1533 1532 1531 1530 1528 1527 1526 1525 1524 1522 1521 1519 1517 1516 1514 1512 1511 1510 1508 1506 1503 1501 1500 1498 1497 1494 1491 1490 1489 1488 1487 1486 1485 1484 1482 1481 1480 1479 1479 1478 1477 1476 1476 1475 1474 1474 1473 1473 1473
1535 1535 1535 1535 1535 1534 1534 1534 1534 1534 1534 1535 1535 1536 1536 1536 1535 1535 1535 1534 1534 1533 1532 1531 1531 1530 1529 1528 1527 1526 1524 1523 1521 1520 1518 1517 1516 1514 1512 1511 1509 1507 1506 1505 1503 1500 1499 1497 1496 1495 1494 1491 1488 1486 1486 1485 1484 1483 1481 1479 1478 1477 1476 1475 1474 1474 1473 1472 1471 1471 1470 1470 1470 1469
1533 1533 1533 1533 1533 1533 1533 1533 1533 1533 1533 1534 1534 1534 1534 1534 1533 1533 1532 1532 1531 1530 1530 1529 1528 1527 1526 1525 1524 1522 1521 1520 1518 1516 1515 1513 1512 1510 1509 1507 1506 1503 1503 1502 1500 1497 1495 1494 1493 1492 1491 1489 1486 1484 1483 1482 1481 1480 1479 1477 1475 1473 1473 1472 1471 1470 1469 1468 1467 1467 1466 1466 1466 1465
1532 1532 1531 1531 1531 1531 1531 1531 1532 1532 1532 1532 1532 1532 1532 1532 1531 1531 1530 1529 1529 1528 1527 1526 1525 1525 1523 1522 1520 1519 1518 1516 1514 1513 1511 1510 1508 1506 1505 1504 1502 1499 1498 1498 1496 1494 1492 1490 1489 1488 1487 1485 1483 1482 1480 1478 1478 1477 1476 1474 1472 1471 1470 1469 1467 1467 1466 1465 1465 1464 1463 1462 1462 1462
1530 1530 1530 1530 1530 1530 1530 1530 1530 1530 1530 1530 1530 1530 1530 1529 1529 1528 1527 1527 1526 1525 1524 1523 1522 1521 1520 1518 1517 1515 1514 1512 1510 1509 1507 1506 1504 1502 1501 1499 1497 1495 1494 1493 1492 1491 1489 1487 1486 1485 1484 1482 1480 1478 1477 1475 1474 1474 1472 1471 1470 1469 1467 1466 1464 1463 1463 1463 1462 1461 1460 1459 1458 1458
1528 1528 1528 1528 1528 1529 1529 1529 1529 1528 1528 1528 1527 1527 1527 1527 1526 1526 1525 1524 1524 1523 1522 1520 1519 1518 1516 1515 1513 1511 1510 1508 1506 1505 1503 1501 1499 1498 1496 1494 1492 1491 1490 1489 1488 1487 1485 1483 1482 1481 1480 1479 1477 1475 1473 1472 1471 1470 1469 1468 1467 1465 1464 1463 1462 1461 1460 1459 1459 1458 1457 1457 1457 1456
1527 1526 1527 1527 1527 1527 1527 1527 1527 1526 1526 1526 1525 1525 1525 1525 1524 1523 1523 1522 1521 1520 1518 1517 1516 1514 1513 1511 1509 1507 1505 1504 1502 1500 1498 1496 1495 1493 1491 1489 1488 1486 1485 1484 1483 1482 1481 1479 1478 1477 1476 1475 1473 1471 1470 1468 1467 1467 1466 1464 1462 1461 1461 1460 1459 1458 1457 1456 1456 1455 1454 1454 1453 1453
1525 1525 1525 1525 1525 1526 1526 1525 1525 1525 1524 1524 1524 1523 1523 1522 1522 1521 1520 1519 1518 1516 1515 1514 1512 1511 1509 1507 1505 1503 1502 1500 1498 1496 1494 1492 1490 1489 1487 1485 1483 1482 1481 1480 1478 1477 1476 1475 1474 1473 1472 1471 1469 1468 1467 1465 1464 1463 1462 1461 1459 1458 1457 1457 1456 1455 1454 1452 1452 1451 1451 1450 1450 1450
1523 1523 1523 1524 1524 1524 1524 1524 1523 1523 1523 1522 1521 1521 1521 1520 1519 1518 1517 1516 1515 1513 1511 1510 1509 1507 1505 1504 1502 1500 1498 1497 1495 1493 1490 1488 1486 1485 1483 1481 1479 1478 1477 1476 1475 1473 1472 1471 1470 1469 1467 1466 1465 1464 1464 1463 1461 1459 1459 1458 1457 1455 1454 1453 1452 1451 1450 1449 1449 1448 1448 1448 1447 1447
1521 1521 1522 1522 1522 1522 1522 1522 1522 1521 1521 1520 1520 1519 1518 1517 1517 1515 1514 1513 1512 1510 1508 1507 1506 1504 1502 1500 1498 1496 1495 1493 1491 1490 1487 1486 1484 1482 1481 1479 1476 1475 1474 1472 1471 1470 1468 1467 1466 1465 1464 1463 1462 1461 1461 1459 1458 1456 1455 1455 1454 1452 1451 1450 1449 1448 1448 1447 1446 1445 1445 1444 1444 1444
1519 1520 1520 1520 1521 1521 1521 1521 1520 1520 1519 1518 1518 1517 1516 1515 1514 1513 1512 1511 1509 1508 1506 1504 1503 1501 1499 1497 1495 1493 1491 1490 1489 1487 1485 1483 1482 1480 1478 1477 1475 1473 1472 1470 1469 1467 1466 1465 1464 1462 1461 1460 1459 1458 1457 1456 1455 1454 1453 1452 1451 1450 1449 1448 1447 1446 1446 1445 1443 1442 1441 1441 1441 1441
1518 1518 1519 1519 1519 1519 1519 1519 1519 1518 1517 1517 1516 1515 1515 1514 1513 1512 1510 1509 1507 1506 1504 1502 1500 1498 1496 1495 1493 1491 1489 1487 1486 1485 1483 1481 1480 1478 1476 1474 1473 1472 1470 1468 1466 1465 1464 1463 1462 1460 1459 1457 1456 1455 1454 1453 1452 1451 1450 1450 1449 1447 1447 1446 1446 1445 1444 1443 1441 1440 1438 1437 1437 1437
1516 1517 1517 1517 1518 1518 1518 1518 1517 1517 1516 1516 1515 1514 1513 1512 1511 1510 1508 1507 1505 1504 1502 1500 1498 1496 1495 1493 1491 1489 1487 1485 1484 1482 1481 1479 1477 1476 1474 1472 1470 1469 1467 1465 1464 1463 1462 1460 1459 1457 1456 1455 1453 1452 1451 1451 1450 1449 1448 1447 1446 1446 1445 1444 1444 1442 1441 1440 1439 1438 1436 1435 1435 1435
1515 1515 1516 1516 1516 1516 1516 1516 1516 1515 1515 1514 1514 1513 1512 1511 1510 1508 1507 1505 1504 1502 1501 1499 1497 1495 1493 1491 1489 1487 1485 1483 1482 1480 1479 1477 1475 1474 1472 1470 1468 1466 1465 1463 1461 1460 1459 1458 1456 1455 1453 1452 1450 1449 1448 1448 1448 1447 1446 1445 1444 1443 1443 1442 1441 1440 1439 1438 1437 1436 1435 1433 1433 1432
1513 1514 1514 1515 1515 1515 1515 1515 1514 1514 1514 1513 1512 1512 1511 1510 1509 1507 1506 1504 1502 1501 1499 1497 1496 1494 1492 1490 1487 1485 1483 1481 1479 1478 1476 1474 1473 1471 1469 1468 1466 1464 1462 1461 1459 1458 1456 1455 1454 1453 1451 1449 1448 1446 1446 1445 1445 1444 1443 1442 1441 1441 1440 1439 1438 1437 1436 1436 1435 1435 1434 1432 1431 1430
1512 1513 1513 1514 1514 1514 1514 1514 1513 1513 1513 1512 1511 1511 1510 1509 1508 1506 1505 1503 1501 1500 1498 1496 1495 1493 1490 1488 1486 1483 1481 1479 1477 1476 1474 1472 1470 1469 1467 1465 1463 1461 1460 1458 1456 1455 1454 1452 1451 1450 1449 1447 1445 1444 1443 1443 1442 1441 1440 1439 1439 1438 1437 1437 1436 1435 1434 1434 1433 1433 1432 1431 1430 1429
1511 1512 1512 1512 1513 1513 1513 1512 1512 1512 1511 1511 1510 1510 1509 1508 1507 1505 1504 1502 1500 1498 1496 1495 1493 1491 1489 1486 1484 1481 1479 1477 1475 1474 1472 1470 1468 1466 1464 1462 1461 1459 1457 1455 1453 1452 1451 1449 1448 1447 1446 1445 1443 1442 1441 1440 1439 1438 1438 1437 1436 1435 1434 1434 1434 1433 1432 1432 1432 1431 1431 1430 1429 1428
1510 1510 1511 1511 1511 1511 1511 1511 1511 1511 1510 1510 1510 1509 1508 1507 1506 1504 1502 1500 1498 1497 1495 1493 1491 1489 1487 1484 1482 1480 1477 1475 1473 1472 1470 1468 1466 1464 1462 1460 1458 1456 1454 1452 1451 1450 1448 1447 1446 1445 1443 1442 1441 1440 1439 1437 1436 1435 1435 1434 1434 1433 1432 1432 1432 1431 1431 1430 1430 1430 1429 1429 1428 1427
1509 1509 1510 1510 1510 1510 1510 1510 1510 1510 1509 1509 1509 1508 1507 1506 1505 1503 1501 1499 1497 1496 1494 1492 1490 1487 1485 1482 1480 1478 1475 1473 1471 1469 1467 1465 1463 1461 1460 1458 1456 1454 1452 1450 1448 1447 1446 1444 1443 1442 1441 1439 1438 1437 1436 1435 1434 1433 1433 1432 1431 1431 1430 1430 1430 1429 1429 1429 1429 1428 1428 1428 1427 1426
1508 1508 1508 1508 1509 1509 1509 1509 1509 1509 1509 1508 1508 1507 1506 1505 1504 1502 1500 1498 1496 1495 1493 1490 1488 1486 1483 1480 1478 1476 1473 1471 1469 1467 1465 1463 1461 1459 1457 1455 1454 1452 1450 1448 1446 1444 1443 1442 1440 1439 1438 1437 1436 1435 1434 1433 1433 1432 1431 1431 1430 1429 1429 1428 1428 1428 1427 1427 1427 1427 1427 1427 1426 1426
1506 1507 1507 1507 1508 1508 1508 1508 1508 1508 1508 1507 1507 1506 1505 1504 1502 1500 1499 1497 1496 1494 1491 1489 1487 1484 1481 1479 1476 1474 1472 1469 1467 1465 1463 1461 1459 1457 1455 1453 1451 1449 1447 1445 1443 1441 1440 1439 1438 1437 1436 1435 1434 1433 1433 1432 1431 1430 1430 1430 1429 1428 1427 1427 1426 1426 1426 1426 1426 1427 1427 1426 1426 1426
1505 1505 1506 1506 1507 1507 1507 1507 1507 1507 1507 1506 1505 1505 1504 1503 1501 1500 1498 1497 1495 1492 1490 1488 1485 1483 1480 1477 1474 1472 1470 1468 1466 1463 1461 1458 1457 1455 1453 1451 1449 1447 1445 1443 1441 1439 1438 1437 1436 1435 1434 1433 1433 1432 1431 1431 1430 1429 1429 1429 1428 1427 1427 1426 1425 1425 1425 1425 1426 1426 1426 1426 1426 1426
1504 1504 1505 1506 1506 1506 1506 1507 1506 1506 1506 1505 1504 1504 1503 1501 1500 1499 1497 1495 1493 1491 1488 1486 1483 1481 1478 1475 1472 1470 1468 1466 1463 1461 1459 1457 1455 1453 1451 1449 1447 1445 1443 1441 1439 1437 1436 1435 1434 1433 1433 1432 1431 1431 1430 1430 1429 1429 1428 1428 1427 1427 1426 1426 1425 1425 1425 1425 1425 1426 1426 1426 1426 1426